This is the latest recevied weather packets stored in our database for station/object KB9MLJ. If no packets are shown the sender has not sent any weather packets the latest 10 day(s).
| Time | Temp. | Humidity | Pressure | Rain* | Wind** | Luminosity | Snow |
|---|---|---|---|---|---|---|---|
| 1777219588 | 16.11° C | 75% | 1017.8 hPa | 0 mm | - | 778 W/m² | - |
| 1777219285 | 16.11° C | 74% | 1017.8 hPa | 0 mm | - | 789 W/m² | - |
| 1777218980 | 15.56° C | 77% | 1017.8 hPa | 0 mm | - | 682 W/m² | - |
| 1777218676 | 15° C | 77% | 1018.2 hPa | 0 mm | - | 714 W/m² | - |
| 1777218372 | 14.44° C | 79% | 1017.8 hPa | 0 mm | - | 688 W/m² | - |
| 1777218068 | 15° C | 78% | 1017.8 hPa | 0 mm | - | 702 W/m² | - |
| 1777217763 | 15° C | 79% | 1018.2 hPa | 0 mm | - | 719 W/m² | - |
| 1777217460 | 14.44° C | 80% | 1018.2 hPa | 0 mm | - | 782 W/m² | - |
| 1777217156 | 15° C | 79% | 1018.2 hPa | 0 mm | - | 733 W/m² | - |
| 1777216852 | 14.44° C | 80% | 1017.8 hPa | 0 mm | - | 735 W/m² | - |
| 1777216549 | 13.89° C | 82% | 1018.2 hPa | 0 mm | - | 676 W/m² | - |
| 1777216245 | 13.89° C | 82% | 1017.8 hPa | 0 mm | - | 746 W/m² | - |
| 1777215944 | 13.33° C | 83% | 1017.8 hPa | 0 mm | - | 715 W/m² | - |
| 1777215640 | 13.33° C | 84% | 1017.8 hPa | 0 mm | - | 684 W/m² | - |
| 1777215335 | 13.33° C | 84% | 1017.8 hPa | 0 mm | - | 672 W/m² | - |
| 1777215032 | 13.33° C | 84% | 1017.8 hPa | 0 mm | - | 690 W/m² | - |
| 1777214732 | 12.22° C | 86% | 1017.8 hPa | 0 mm | - | 662 W/m² | - |
| 1777214426 | 12.22° C | 86% | 1017.8 hPa | 0 mm | - | 664 W/m² | - |
| 1777214126 | 12.22° C | 87% | 1018.2 hPa | 0 mm | - | 661 W/m² | - |
| 1777213821 | 12.22° C | 87% | 1018.2 hPa | 0 mm | - | 362 W/m² | - |
| 1777213515 | 12.22° C | 88% | 1018.2 hPa | 0 mm | - | 722 W/m² | - |
| 1777213214 | 11.11° C | 90% | 1017.8 hPa | 0 mm | - | 422 W/m² | - |
| 1777212910 | 11.11° C | 90% | 1018.2 hPa | 0 mm | - | 301 W/m² | - |
| 1777212608 | 10.56° C | 91% | 1018.2 hPa | 0 mm | - | 238 W/m² | - |
| 1777212305 | 10.56° C | 92% | 1018.2 hPa | 0 mm | - | 226 W/m² | - |
* Rain latest hour (hover to see other rain measurements)
** Current wind speed in m/s (hover to see current wind gust speed)